Regional Weather Roundup
Issued by NWS

Home | Current Version | Previous Version | Graphics & Text | Print | Product List | Glossary On
Versions: 1 2 3 4 5 6 7 8 9 10 11 12 13 14 15 16 17 18 19 20 21 22 23 24 25 26 27 28 29 30 31 32 33 34 35 36 37 38 39 40 41 42 43 44 45 46 47 48 49 50
000
ASUS43 KBIS 221710
RWRND

NORTH DAKOTA REGIONAL WEATHER ROUNDUP
NATIONAL WEATHER SERVICE BISMARCK ND
1200 PM CDT SUN OCT 22 2017

NOTE: "FAIR" INDICATES FEW OR NO CLOUDS BELOW 12,000 FEET WITH NO
SIGNIFICANT WEATHER AND/OR OBSTRUCTIONS TO VISIBILITY.


NDZ001>003-009>011-017-221800-
NORTHWEST NORTH DAKOTA

CITY           SKY/WX    TMP DP  RH WIND       PRES   REMARKS
WILLISTON      LGT RAIN  43  29  57 SW7       29.69F
MINOT          CLOUDY    51  30  44 S13       29.69F
MINOT AFB      CLOUDY    51  28  41 S14       29.67F
$$

NDZ018>021-031>035-040>046-221800-
SOUTHWEST NORTH DAKOTA

CITY           SKY/WX    TMP DP  RH WIND       PRES   REMARKS
BISMARCK       SUNNY     56  28  34 SW9       29.81F
DICKINSON      LGT RAIN  55  26  32 SW22      29.74F
GARRISON         N/A     50  25  37 SW14      29.72F
HETTINGER ARPT CLOUDY    55  20  25 SW20      29.82F
$$

NDZ004>008-012>016-024-026-027-054-221800-
NORTHEAST NORTH DAKOTA

CITY           SKY/WX    TMP DP  RH WIND       PRES   REMARKS
GRAND FORKS    MOSUNNY   58  33  39 SW16G24   29.81F
GRND FRKS AFB  SUNNY     58  32  37 W13       29.80F
DEVILS LAKE    SUNNY     51  32  48 SW14      29.76F
$$

NDZ022-023-025-028>030-036>039-047>053-221800-
SOUTHEAST NORTH DAKOTA

CITY           SKY/WX    TMP DP  RH WIND       PRES   REMARKS
FARGO          SUNNY     56  35  45 SW12      29.88F
JAMESTOWN      SUNNY     59  28  30 SW14G25   29.83F
$$





USA.gov is the U.S. government's official web portal to all federal, state and local government web resources and services.